Regional Weather Roundup
Issued by NWS Bismarck, ND

Home | Current Version | Previous Version | Text Only | Print | Product List | Glossary On
Versions: 1 2 3 4 5 6 7 8 9 10 11 12 13 14 15 16 17 18 19 20 21 22 23 24 25 26 27 28 29 30 31 32 33 34 35 36 37 38 39 40 41 42 43 44 45 46 47 48 49 50
000
ASUS43 KBIS 281259
RWRBIS

NWR BROADCAST TEXT
NATIONAL WEATHER SERVICE BISMARCK ND
800 AM CDT MON JUL 28 2014

NOTE: "FAIR" INDICATES FEW OR NO CLOUDS BELOW 12,000 FEET WITH NO
SIGNIFICANT WEATHER AND/OR OBSTRUCTIONS TO VISIBILITY.


CITY           SKY/WX    TMP DP  RH WIND       PRES   REMARKS
WILLISTON      SUNNY     59  53  80 CALM      30.32S
MINOT          MOSUNNY   55  50  83 CALM      30.33R
MINOT AFB      NOT AVBL
BISMARCK       SUNNY     53  50  89 W3        30.35S
DICKINSON      NOT AVBL
GARRISON         N/A     54  52  93 CALM      30.33S
HETTINGER ARPT SUNNY     52  49  89 CALM      30.36S
JAMESTOWN      CLOUDY    58  53  84 NW8       30.32R
CARRINGTON     FAIR      54  54 100 NW6       30.34R
CROSBY           N/A     57  57 100 CALM      30.33R
HARVEY         FAIR      54  54 100 CALM      30.33S
HAZEN          FAIR      50  48  93 CALM      30.34F
LINTON         CLOUDY    46  46 100 CALM      30.35S FOG
MANDAN         FAIR      52  50  93 CALM      30.35S
RUGBY          FOG       52  52 100 CALM      30.33R VSB<1/4
TIOGA          CLOUDY    57  57 100 CALM      30.36S
WATFORD CITY   FAIR      54  54 100 CALM      30.32R
$$

CITY           SKY/WX    TMP DP  RH WIND       PRES   REMARKS
GRAND FORKS    CLOUDY    61  55  81 NW5       30.27R
GRAND FORKS AF NOT AVBL
DEVILS LAKE    SUNNY     57  52  82 NW7       30.30S
FARGO          CLOUDY    61  55  81 NW5       30.27R
CAVALIER       FAIR      59  54  82 NW8       30.28S
GWINNER        CLOUDY    61  57  88 NW8       30.31R
LANGDON        PTSUNNY   52  50  93 NW3       30.30S
$$

CITY           SKY/WX    TMP DP  RH WIND       PRES   REMARKS
ABERDEEN       CLOUDY    56  54  93 N9        30.31R
MOBRIDGE       FOG       54  54 100 NW6       30.32S VSB 1/4
BUFFALO          N/A     56  51  84 E5        30.29R
RAPID CITY     PTSUNNY   58  54  86 S6        30.35S
GLASGOW        SUNNY     58  51  78 E9        30.28R
SIDNEY         SUNNY     55  52  88 CALM      30.33S
WOLF POINT     SUNNY     56  50  80 E7        30.30R
GLENDIVE       SUNNY     57  52  82 CALM      30.32F
MILES CITY     SUNNY     63  54  72 E3        30.29R
BAKER          SUNNY     55  51  86 SE8       30.34R
$$

CITY           SKY/WX    TMP DP  RH WIND       PRES   REMARKS
BILLINGS       PTCLDY    63  42  46 CALM      30.28R
GREAT FALLS    MOCLDY    62  44  51 CALM      30.24R
$$



USA.gov is the U.S. government's official web portal to all federal, state and local government web resources and services.